SP5IZJ-2 Weather Reports


Display with metric or nautical units.
time (UTC)temp
F
wind
direction
speed
MPH
gust
MPH
rain 1hr
in
rain 24hr
in
rain mn
in
humidity
%
barometer
mb
20260904073913 67 23 9.0 16.0 0.00 0.00 0.00 79 1003.8
20260904073228 67 23 7.0 13.0 0.00 0.00 0.00 80 1003.7
20260904072554 67 23 7.0 14.0 0.00 0.00 0.00 80 1003.6
20260904071849 66 23 6.0 11.0 0.00 0.00 0.00 80 1003.8
20260904071154 66 23 8.0 17.0 0.00 0.00 0.00 80 1003.8
20260904065753 65 23 6.0 11.0 0.00 0.00 0.00 82 1003.9
20260904065030 65 23 6.0 17.0 0.00 0.00 0.00 83 1004.0
20260904064318 65 23 7.0 12.0 0.00 0.00 0.00 83 1004.1
20260904063610 64 23 6.0 12.0 0.00 0.00 0.00 84 1004.0
20260904062910 64 23 7.0 12.0 0.00 0.00 0.00 85 1004.1
20260904061526 63 23 7.0 12.0 0.00 0.00 0.00 86 1004.2
20260904060111 63 23 5.0 10.0 0.00 0.00 0.00 86 1004.0
20260904055411 63 23 7.0 10.0 0.00 0.00 0.00 87 1004.0
20260904054723 62 23 7.0 10.0 0.00 0.00 0.00 87 1004.2
20260904054011 62 23 8.0 18.0 0.00 0.00 0.00 88 1004.2
20260904053319 62 23 7.0 12.0 0.00 0.00 0.00 89 1004.3
20260904052623 62 0 7.0 10.0 0.00 0.00 0.00 89 1004.3
20260904051912 61 23 6.0 10.0 0.00 0.00 0.00 89 1004.2
20260904051216 61 23 7.0 11.0 0.00 0.00 0.00 88 1004.3
20260904045116 61 23 5.0 9.0 0.00 0.00 0.00 88 1004.2
20260904043713 61 23 6.0 13.0 0.00 0.00 0.00 88 1004.3
20260904043025 61 23 7.0 13.0 0.00 0.00 0.00 86 1004.3
20260904042313 62 23 6.0 11.0 0.00 0.00 0.00 85 1004.4
20260904040918 62 23 4.0 9.0 0.00 0.00 0.00 84 1004.5
20260904040214 62 23 4.0 9.0 0.00 0.00 0.00 84 1004.5
20260904035514 62 23 4.0 10.0 0.00 0.00 0.00 83 1004.5
20260904034114 62 359 0.0 0.0 0.00 0.00 0.00 83 1004.3
20260904032715 62 23 5.0 9.0 0.00 0.00 0.00 83 1004.4
20260904032015 62 23 6.0 11.0 0.00 0.00 0.00 83 1004.5
20260904031315 62 23 5.0 9.0 0.00 0.00 0.00 82 1004.5
20260904030615 62 23 6.0 13.0 0.00 0.00 0.00 82 1004.6
20260904025915 62 23 6.0 9.0 0.00 0.00 0.00 82 1004.5
20260904025216 62 23 4.0 10.0 0.00 0.00 0.00 82 1004.6
20260904024515 62 359 0.0 0.0 0.00 0.00 0.00 82 1004.6
20260904023816 212 359 0.0 0.0 0.00 0.00 0.00 100
20260904023116 62 23 6.0 11.0 0.00 0.00 0.00 81 1004.8
20260904022416 62 23 4.0 9.0 0.00 0.00 0.00 82 1004.7
20260904021717 62 0 3.0 9.0 0.00 0.00 0.00 82 1004.7
20260904021016 62 0 3.0 7.0 0.00 0.00 0.00 82 1004.6
20260904020317 62 0 3.0 7.0 0.00 0.00 0.00 81 1004.6
20260904015625 62 0 3.0 6.0 0.00 0.00 0.00 81 1004.6
20260904014217 62 0 1.0 4.0 0.00 0.00 0.00 81 1004.7
20260904013517 62 0 3.0 8.0 0.00 0.00 0.00 80 1004.8
20260904012818 62 0 4.0 7.0 0.00 0.00 0.00 80 1004.7
20260904012137 62 0 3.0 8.0 0.00 0.00 0.00 81 1004.7
20260904010718 61 0 2.0 5.0 0.00 0.00 0.00 81 1004.9
20260904004618 62 0 4.0 8.0 0.00 0.00 0.00 81 1004.9
20260904003918 62 0 3.0 8.0 0.00 0.00 0.00 81 1004.9
20260904003219 62 0 3.0 7.0 0.00 0.00 0.00 81 1005.0
20260904002519 62 359 0.0 0.0 0.00 0.00 0.00 81 1004.9
20260904001139 62 0 5.0 8.0 0.00 0.00 0.00 81 1005.1
20260904000420 61 0 4.0 6.0 0.00 0.00 0.00 81 1005.1
20260903234320 61 0 3.0 7.0 0.00 0.00 0.00 83 1005.3
20260903232933 61 0 1.0 7.0 0.00 0.00 0.00 85 1005.3
20260903230129 60 0 0.0 0.0 0.00 0.00 0.00 86 1005.7
20260903224721 60 0 0.0 0.0 0.00 0.00 0.00 85 1005.9
20260903222634 61 0 0.0 2.0 0.00 0.00 0.00 83 1006.1
20260903222007 61 0 1.0 5.0 0.00 0.00 0.00 83 1006.2
20260903215831 61 0 0.0 4.0 0.00 0.00 0.00 85 1006.2
20260903215123 60 0 0.0 1.0 0.00 0.00 0.00 85 1006.3
20260903212409 62 0 0.0 1.0 0.00 0.00 0.00 81 1006.3
20260903211624 62 0 2.0 8.0 0.00 0.00 0.00 81 1006.5
20260903211009 62 0 1.0 6.0 0.00 0.00 0.00 83 1006.6
20260903204910 62 0 0.0 0.0 0.00 0.00 0.00 83 1006.8
20260903204210 62 0 0.0 0.0 0.00 0.00 0.00 83 1006.7
20260903202745 62 0 0.0 0.0 0.00 0.00 0.00 83 1006.7
20260903201325 62 0 0.0 0.0 0.00 0.00 0.00 83 1006.8
20260903200654 62 0 0.0 0.0 0.00 0.00 0.00 83 1006.8
20260903195937 62 0 0.0 0.0 0.00 0.00 0.00 83 1007.1
20260903195311 62 0 0.0 0.0 0.00 0.00 0.00 83 1007.2
20260903193826 62 0 0.0 0.0 0.00 0.00 0.00 83 1006.9
20260903193211 62 0 0.0 0.0 0.00 0.00 0.00 83 1007.1
20260903192512 62 0 0.0 0.0 0.00 0.00 0.00 82 1007.2
20260903190412 62 0 0.0 0.0 0.00 0.00 0.00 82 1007.4
20260903184313 62 0 0.0 0.0 0.00 0.00 0.00 81 1007.4
20260903183536 62 0 0.0 0.0 0.00 0.00 0.00 81 1007.2
20260903182913 62 0 0.0 0.0 0.00 0.00 0.00 80 1007.2
20260903182132 62 0 0.0 0.0 0.00 0.00 0.00 79 1007.3
20260903181432 63 0 0.0 0.0 0.00 0.00 0.00 78 1007.3
20260903180801 64 0 0.0 0.0 0.00 0.00 0.00 78 1007.4
20260903180028 64 0 0.0 0.0 0.00 0.00 0.00 78 1007.3
20260903175329 64 0 0.0 0.0 0.00 0.00 0.00 78 1007.3
20260903174629 64 0 0.0 0.0 0.00 0.00 0.00 77 1007.5
20260903173949 65 0 0.0 0.0 0.00 0.00 0.00 76 1007.4
20260903173230 65 0 0.0 2.0 0.00 0.00 0.00 76 1007.3
20260903172542 65 0 0.0 2.0 0.00 0.00 0.00 75 1007.4
20260903171846 65 0 0.0 4.0 0.00 0.00 0.00 74 1007.5
20260903171215 65 0 4.0 12.0 0.00 0.00 0.00 74 1007.6
20260903170511 66 68 2.0 12.0 0.00 0.00 0.00 72 1007.4
20260903165730 67 68 0.0 0.0 0.00 0.00 0.00 71 1007.2
20260903165043 68 68 0.0 0.0 0.00 0.00 0.00 69 1007.4
20260903162239 70 68 0.0 0.0 0.00 0.00 0.00 60 1007.1
20260903161535 71 68 0.0 0.0 0.00 0.00 0.00 59 1007.2
20260903160900 71 68 0.0 0.0 0.00 0.00 0.00 59 1007.2
20260903160132 72 68 0.0 0.0 0.00 0.00 0.00 58 1007.5
20260903155440 72 68 0.0 0.0 0.00 0.00 0.00 59 1007.5
20260903154036 71 68 0.0 1.0 0.00 0.00 0.00 59 1007.5
20260903153333 71 68 0.0 3.0 0.00 0.00 0.00 58 1007.6
20260903152636 71 68 1.0 6.0 0.00 0.00 0.00 58 1007.6
20260903152018 71 68 3.0 9.0 0.00 0.00 0.00 57 1007.8
20260903151305 72 68 3.0 8.0 0.00 0.00 0.00 56 1007.9
20260903150533 73 45 0.0 4.0 0.00 0.00 0.00 55 1007.9
20260903145845 72 45 2.0 5.0 0.00 0.00 0.00 55 1007.9
20260903145134 72 23 3.0 8.0 0.00 0.00 0.00 54 1007.8
20260903144437 73 45 1.0 7.0 0.00 0.00 0.00 54 1007.8
20260903143753 73 45 2.0 5.0 0.00 0.00 0.00 53 1008.1
20260903143054 73 23 3.0 6.0 0.00 0.00 0.00 52 1008.2
20260903142419 74 23 4.0 9.0 0.00 0.00 0.00 52 1008.0
20260903141634 74 23 3.0 8.0 0.00 0.00 0.00 52 1008.1
20260903140934 74 23 4.0 7.0 0.00 0.00 0.00 52 1008.2
20260903140307 74 23 4.0 7.0 0.00 0.00 0.00 52 1008.3
20260903135535 74 23 2.0 7.0 0.00 0.00 0.00 51 1008.1
20260903134847 75 45 2.0 12.0 0.00 0.00 0.00 50 1008.1
20260903134135 75 45 2.0 6.0 0.00 0.00 0.00 50 1008.2
20260903133435 76 359 0.0 0.0 0.00 0.00 0.00 48 1008.3
20260903132739 76 359 0.0 0.0 0.00 0.00 0.00 48 1008.5
20260903132119 76 45 4.0 8.0 0.00 0.00 0.00 48 1008.5
20260903131336 76 45 3.0 11.0 0.00 0.00 0.00 48 1008.4
20260903130721 77 45 3.0 7.0 0.00 0.00 0.00 47 1008.5
20260903125236 78 359 0.0 0.0 0.00 0.00 0.00 47 1008.7
20260903124622 77 45 4.0 11.0 0.00 0.00 0.00 47 1008.7
20260903123901 77 23 6.0 13.0 0.00 0.00 0.00 46 1008.8
20260903123137 78 45 7.0 12.0 0.00 0.00 0.00 48 1008.8
20260903122522 78 359 0.0 0.0 0.00 0.00 0.00 47 1008.9
20260903121822 76 45 4.0 9.0 0.00 0.00 0.00 48 1008.9
20260903121123 76 23 4.0 8.0 0.00 0.00 0.00 46 1009.0
20260903120338 78 23 6.0 12.0 0.00 0.00 0.00 46 1008.9
20260903115706 77 90 2.0 11.0 0.00 0.00 0.00 47 1008.8
20260903115010 76 113 1.0 9.0 0.00 0.00 0.00 48 1009.0
20260903114322 76 23 4.0 9.0 0.00 0.00 0.00 48 1009.2
20260903113602 75 23 4.0 8.0 0.00 0.00 0.00 49 1009.2
20260903112924 76 23 4.0 10.0 0.00 0.00 0.00 48 1009.4
20260903111439 77 68 2.0 6.0 0.00 0.00 0.00 47 1009.6
20260903110739 77 45 4.0 13.0 0.00 0.00 0.00 46 1009.7
20260903105424 76 23 6.0 13.0 0.00 0.00 0.00 48 1009.7
20260903104655 75 23 4.0 9.0 0.00 0.00 0.00 48 1009.9
20260903103940 77 23 8.0 13.0 0.00 0.00 0.00 46 1010.0
20260903103240 78 23 6.0 12.0 0.00 0.00 0.00 46 1009.9
20260903102600 78 23 5.0 12.0 0.00 0.00 0.00 46 1009.8
20260903101840 79 23 6.0 10.0 0.00 0.00 0.00 45 1010.0
20260903101200 78 23 6.0 18.0 0.00 0.00 0.00 45 1010.1
20260903100449 77 23 5.0 14.0 0.00 0.00 0.00 47 1010.1
20260903095741 77 23 4.0 9.0 0.00 0.00 0.00 48 1010.1
20260903095049 77 23 5.0 13.0 0.00 0.00 0.00 47 1010.3
20260903094341 78 23 5.0 12.0 0.00 0.00 0.00 46 1010.3
20260903093645 79 45 4.0 11.0 0.00 0.00 0.00 45 1010.3
20260903093026 77 0 4.0 8.0 0.00 0.00 0.00 46 1010.4
20260903092246 78 23 3.0 9.0 0.00 0.00 0.00 46 1010.4
20260903091542 78 45 2.0 11.0 0.00 0.00 0.00 48 1010.4
20260903090842 78 45 4.0 11.0 0.00 0.00 0.00 46 1010.5
20260903090158 78 68 2.0 6.0 0.00 0.00 0.00 48 1010.7
20260903085511 77 68 2.0 9.0 0.00 0.00 0.00 50 1010.7
20260903084750 77 90 3.0 9.0 0.00 0.00 0.00 50 1010.7
20260903084043 77 359 0.0 0.0 0.00 0.00 0.00 53 1010.7
20260903083347 76 359 0.0 0.0 0.00 0.00 0.00 53 1010.7
20260903082643 76 359 0.0 0.0 0.00 0.00 0.00 55 1010.8
20260903082011 75 45 2.0 8.0 0.00 0.00 0.00 58 1010.8
20260903081243 74 45 3.0 9.0 0.00 0.00 0.00 60 1010.8
20260903080544 73 45 3.0 7.0 0.00 0.00 0.00 61 1010.8
20260903075844 73 23 3.0 9.0 0.00 0.00 0.00 63 1010.6
20260903075152 72 23 3.0 9.0 0.00 0.00 0.00 67 1010.6
20260903074520 71 23 3.0 7.0 0.00 0.00 0.00 69 1010.7